RH
24 25 32 34 37 32 35 35 28 27 27 29 28 23 21 20 20 17 13 9 10 14 15 13 13 13 11 10 8 8 11 15 19 17 13 14 14 13 12 13 7 7 10 15 17 22 24 22 12
25 31 36 38 36 37 40 29 26 27 27 28 25 22 22 21 17 14 14 13 16 17 16 19 16 11 10 10 19 19 23 25 28 22 25 26 28 31 31 23 16 10 11 14 21 21 26 26 17
29 36 40 43 35 33 33 28 27 26 26 26 24 22 22 21 14 14 15 16 17 18 19 18 12 11 12 13 17 21 21 28 30 31 35 40 43 41 41 38 28 20 19 18 26 29 27 27 23
33 40 39 39 42 37 28 28 26 26 26 26 22 21 18 17 15 14 14 16 16 18 17 16 12 12 10 12 15 15 22 25 30 36 41 47 47 46 46 44 41 28 24 20 26 33 37 29 25
37 39 39 41 43 34 29 29 26 25 24 23 22 20 18 17 14 14 15 15 15 16 14 17 12 9 11 13 13 16 27 35 41 43 45 42 43 49 51 53 51 39 30 27 22 33 38 40 29
40 37 39 41 44 43 32 29 26 26 25 24 23 18 17 16 15 15 15 15 15 13 13 14 11 9 11 12 14 28 36 36 36 35 35 34 36 45 49 57 62 58 39 34 24 30 36 46 39
38 40 38 39 41 39 35 27 28 27 26 25 23 16 17 16 16 15 15 15 13 13 15 13 11 12 10 13 30 40 36 33 32 33 34 34 33 37 43 49 62 63 44 41 32 28 35 47 48
40 39 38 41 45 42 36 27 27 29 28 27 22 16 19 17 15 16 16 14 16 16 16 13 12 13 18 36 41 36 33 33 38 35 35 38 35 35 40 52 60 63 60 62 41 39 35 40 51
38 37 36 44 45 42 39 31 33 35 31 25 19 17 17 17 16 17 18 16 17 18 19 13 13 20 32 42 39 35 38 45 39 37 36 38 42 47 47 55 61 68 70 72 61 45 41 37 46
36 35 36 38 43 42 39 37 41 37 30 23 23 19 18 19 18 21 21 18 19 21 21 13 16 26 35 38 37 40 51 51 39 35 39 43 47 51 49 53 55 76 77 72 70 47 43 43 52
37 36 35 36 41 38 36 39 38 32 29 26 24 21 22 22 21 22 24 23 18 21 21 15 23 28 35 38 37 44 52 52 45 37 39 43 45 52 59 55 49 57 79 79 73 50 42 55 56
39 33 33 38 40 38 39 38 38 33 30 26 22 21 22 20 21 24 27 28 21 20 18 19 27 33 37 37 39 48 55 53 48 39 35 39 46 61 63 63 61 52 66 75 76 68 49 52 56
36 32 36 40 40 36 38 39 35 30 28 27 24 24 23 23 27 26 26 29 24 20 18 23 29 42 38 36 41 49 58 57 53 48 39 43 54 68 66 60 62 59 61 65 78 73 50 60 66
37 36 37 43 43 39 41 38 38 32 27 29 28 27 24 27 33 30 28 30 28 20 19 26 36 43 36 37 44 53 65 65 62 58 53 49 62 73 73 68 69 70 64 69 81 76 61 66 69
37 36 39 41 39 41 42 39 40 36 32 29 30 28 27 26 33 35 32 32 30 20 21 28 39 35 33 44 54 60 69 74 79 75 64 62 68 84 74 79 73 71 71 70 72 71 71 70 72
34 35 39 42 38 39 40 40 41 37 31 27 28 26 27 30 35 36 37 33 30 19 22 30 38 31 37 51 62 63 80 81 82 83 78 71 68 79 79 78 83 79 69 70 75 75 71 74 75
32 35 39 44 41 41 39 39 35 36 26 25 28 25 27 34 34 33 38 34 31 16 23 30 35 30 39 64 77 83 84 83 86 93 93 85 75 69 78 83 79 81 79 80 78 72 73 78 75
33 38 40 42 41 38 40 38 33 27 23 24 27 24 28 33 34 33 38 36 32 15 24 30 33 29 41 59 77 83 84 85 93 93 93 91 85 73 69 75 82 77 79 79 79 72 80 79 78
34 36 40 40 42 38 43 39 34 27 20 22 25 25 29 32 32 35 38 38 32 15 23 35 31 32 48 64 77 81 80 81 87 90 94 92 81 68 64 63 66 75 78 76 79 79 76 74 72
31 33 37 42 41 39 36 31 23 21 17 21 24 24 27 31 33 36 40 38 32 14 22 36 31 34 57 68 75 76 76 77 82 87 91 90 87 79 72 64 60 69 69 73 77 75 73 75 69
27 29 31 36 35 31 26 22 27 25 21 21 22 23 25 28 32 36 43 34 29 15 23 34 31 38 60 66 76 81 82 80 87 87 94 93 87 83 76 72 62 57 59 63 67 69 69 72 62
26 27 29 30 32 30 28 25 27 23 21 22 23 22 24 28 32 41 44 33 24 20 23 32 32 38 59 63 73 78 79 81 83 88 85 87 95 92 89 76 58 52 56 59 63 64 66 64 52
24 28 29 28 31 31 25 29 23 23 19 20 21 22 28 34 40 45 42 30 21 19 22 33 32 37 54 55 67 78 80 87 89 86 89 85 94 91 93 85 75 65 61 68 68 65 60 59 56
23 28 28 27 27 33 26 27 22 23 22 21 24 27 32 43 44 42 40 29 21 22 20 31 39 37 50 61 68 79 86 85 88 91 89 86 89 93 97 90 80 81 80 79 73 72 64 54 68
26 28 33 36 36 34 31 24 21 21 22 23 27 29 39 45 45 43 39 25 20 22 22 30 43 38 45 61 68 76 80 87 88 87 90 87 84 88 92 93 81 75 74 73 72 68 57 64 68
25 27 29 37 37 36 35 28 24 24 23 24 32 40 44 46 44 39 27 24 19 21 24 28 44 39 41 54 62 74 71 91 86 87 89 91 92 85 85 86 77 68 69 69 62 58 58 71 73
31 30 28 32 30 35 30 30 21 29 32 31 38 45 45 43 40 26 24 24 18 20 24 27 37 44 39 45 52 66 62 77 82 92 91 86 88 89 84 86 85 81 84 71 70 73 80 80 84
25 30 29 30 36 44 35 30 28 34 38 42 46 45 41 44 36 22 22 23 18 20 22 26 31 47 38 38 48 55 54 69 76 83 81 82 86 89 89 84 80 79 80 81 80 77 78 81 93
26 26 27 30 31 38 41 34 33 32 38 45 46 44 43 45 33 21 21 21 17 20 21 24 28 42 39 38 34 40 47 60 66 73 70 70 77 89 90 87 78 81 79 73 81 74 73 79 91
26 23 28 31 36 33 32 32 36 31 36 43 45 44 43 45 26 21 21 19 17 20 21 23 30 34 27 25 30 37 44 52 54 67 68 67 77 84 94 92 87 83 84 79 79 86 88 90 88